CAPE
nan nan nan nan nan nan nan nan nan nan nan nan nan nan nan nan nan nan nan nan nan nan nan nan nan nan nan nan nan nan nan nan nan nan nan nan nan nan nan nan nan nan nan nan nan nan nan nan nan nan nan nan nan nan nan nan nan 1 5 10 10 16 23 25 25 21 16 11 5 5 2 0 nan nan nan nan nan nan nan nan nan nan nan nan nan nan
nan nan nan nan nan nan nan nan nan nan nan nan nan nan nan nan nan nan nan nan nan nan nan nan nan nan nan nan nan nan nan nan nan nan nan nan nan nan nan nan nan nan nan nan nan nan nan nan nan nan nan nan nan nan nan nan nan nan nan 0 0 6 12 18 18 21 16 19 10 10 3 nan nan nan nan nan nan nan nan nan nan nan nan nan nan nan
nan nan nan nan nan nan nan nan nan nan nan nan nan nan nan nan nan nan nan nan nan nan nan nan nan nan nan nan nan nan nan nan nan nan nan nan nan nan nan nan nan nan nan nan nan nan nan nan nan nan nan nan nan nan nan nan nan nan nan nan nan nan 0 4 4 7 9 8 5 5 1 nan nan nan nan nan nan nan nan nan nan nan nan nan nan nan
nan nan nan nan nan nan nan nan nan nan nan nan nan nan nan nan nan nan nan nan nan nan nan nan nan nan nan nan 1 1 nan nan nan nan nan nan nan nan nan nan nan nan nan nan nan nan nan nan nan nan nan nan nan nan nan nan nan nan nan nan nan nan nan nan nan nan nan nan nan nan nan nan nan nan nan nan nan nan nan nan nan nan nan nan nan nan
nan nan nan nan nan nan nan nan nan nan nan nan nan nan nan nan nan nan nan nan nan nan nan nan nan nan nan nan 1 1 1 0 nan nan nan nan nan nan nan nan nan nan nan nan nan nan nan nan nan nan nan nan nan nan nan nan nan nan nan nan nan nan nan nan nan nan nan nan nan nan nan nan nan nan nan nan nan nan nan nan nan nan nan nan nan nan
nan nan nan nan nan nan nan nan nan nan nan nan nan nan nan nan nan nan nan nan nan nan nan nan nan nan nan nan 1 1 1 0 nan nan nan nan nan nan nan nan nan nan nan nan nan nan nan nan nan nan nan nan nan nan nan nan nan nan nan nan nan nan nan nan nan nan nan nan nan nan nan nan nan nan nan nan nan nan nan nan nan nan nan nan nan nan
nan nan nan nan nan nan nan nan nan nan nan nan nan nan nan nan nan nan nan nan nan nan nan nan nan nan nan nan 2 2 1 1 nan nan nan nan nan nan nan nan nan nan nan nan nan nan nan nan nan nan nan nan nan nan nan nan nan nan nan nan nan nan nan nan nan nan nan nan nan nan nan nan nan nan nan nan nan nan nan nan nan nan nan nan nan nan
nan nan nan nan nan nan nan nan nan nan nan nan nan nan nan nan nan nan nan nan nan nan nan nan nan nan nan nan nan nan nan nan nan nan nan nan nan nan nan nan nan nan nan nan nan nan nan nan nan nan nan nan nan nan nan nan nan nan nan nan nan nan nan nan nan nan nan nan nan nan nan nan nan nan nan nan nan nan nan nan nan nan nan nan nan nan
nan nan nan nan nan nan nan nan nan nan nan nan nan nan nan nan nan nan nan nan nan nan nan nan nan nan nan nan nan nan nan nan nan nan nan nan nan nan nan nan nan nan nan nan nan nan nan nan nan nan nan nan nan nan nan nan nan nan nan nan nan nan nan nan nan nan nan nan nan nan nan nan nan nan nan nan nan nan nan nan nan nan nan nan nan nan
nan nan nan nan nan nan nan nan nan nan nan nan nan nan nan nan nan nan nan nan nan nan nan nan nan nan nan nan nan nan nan nan 0 0 nan nan nan nan nan nan nan nan nan nan nan nan nan nan nan nan nan nan nan nan nan nan nan nan nan nan nan nan nan nan nan nan nan nan nan nan nan nan nan nan nan nan nan nan nan nan nan nan nan nan nan nan
nan nan nan nan nan nan nan nan nan nan nan nan nan nan nan nan nan nan nan nan nan nan nan nan nan nan nan nan nan nan nan nan nan nan nan nan nan nan nan nan nan nan nan nan nan nan nan nan nan nan nan nan nan nan nan nan nan nan nan nan nan nan nan nan nan nan nan nan nan nan nan nan nan nan nan nan nan nan nan nan nan nan nan nan nan nan
nan nan nan nan nan nan nan nan nan nan nan nan nan nan nan nan nan nan nan nan nan nan nan nan nan nan nan nan nan nan nan nan nan nan nan nan nan nan nan nan nan nan nan nan nan nan nan nan nan nan nan nan nan nan nan nan nan nan nan nan nan nan nan nan nan nan nan nan nan nan nan nan nan nan nan nan nan nan nan nan nan nan nan nan nan nan
nan nan nan nan nan nan nan nan nan nan nan nan nan nan nan nan nan nan nan nan nan nan nan nan nan nan nan nan nan nan nan nan nan nan nan nan nan nan nan nan nan nan nan nan nan nan nan nan nan nan nan nan nan nan nan nan nan nan nan nan nan nan nan nan nan nan nan nan nan nan nan nan nan nan nan nan nan nan nan nan nan nan nan nan nan nan
nan nan nan nan nan nan nan nan nan nan nan nan nan nan nan nan nan nan nan nan nan nan nan nan nan nan nan nan nan nan nan nan nan nan nan nan nan nan nan nan nan nan nan nan nan nan nan nan nan nan nan nan nan nan nan nan nan nan nan nan nan nan nan nan nan nan nan nan nan nan nan nan nan nan nan nan nan nan nan nan nan nan nan nan nan 0
nan nan nan nan nan nan nan nan nan nan nan nan nan nan nan nan nan nan nan nan nan nan nan nan nan nan nan nan nan nan nan nan nan nan nan nan nan nan nan nan nan nan nan nan nan nan nan nan nan nan nan nan nan nan nan nan nan nan nan nan nan nan nan nan nan nan nan nan nan nan nan nan nan nan nan nan nan nan nan nan nan nan nan nan nan nan
nan nan nan nan nan nan nan nan nan nan nan nan nan nan nan nan nan nan nan nan nan nan nan nan nan nan nan nan nan nan nan nan nan nan nan nan nan nan nan nan nan nan nan nan nan nan nan nan nan nan nan nan nan nan nan nan nan nan nan nan nan nan nan nan nan nan nan nan 0 0 0 0 0 0 nan nan nan nan nan nan nan nan nan nan nan nan
nan nan nan nan nan nan nan nan nan nan nan nan nan nan nan nan nan nan nan nan nan nan nan nan nan nan nan nan nan nan nan nan nan nan nan nan nan nan nan nan nan nan nan nan nan nan nan nan nan nan nan nan nan nan nan nan nan nan nan nan nan nan nan nan nan nan nan 0 1 1 1 1 1 1 0 nan nan nan nan nan nan nan nan nan nan nan
nan nan nan nan nan nan nan nan nan nan nan nan nan nan nan nan nan nan nan nan nan nan nan nan nan nan nan nan nan nan nan nan nan nan nan nan nan nan nan nan nan nan nan nan nan nan nan nan nan nan nan nan nan nan nan nan nan nan nan nan nan nan nan nan nan nan 0 1 2 2 2 3 3 3 1 nan nan nan nan nan nan nan nan nan nan nan
nan nan nan nan nan nan nan nan nan nan nan nan nan nan nan nan nan nan nan nan nan nan nan nan nan nan nan nan nan nan nan nan nan nan nan nan nan nan nan nan nan nan nan nan nan nan nan nan nan nan nan nan nan nan nan nan nan nan 0 0 0 0 nan nan nan nan 1 3 4 4 3 4 4 4 2 0 nan nan nan nan nan nan nan nan nan nan
nan nan nan nan nan nan nan nan nan nan nan nan nan nan nan nan nan nan nan nan nan nan nan nan nan nan nan nan nan nan nan nan nan nan nan nan nan nan nan nan nan nan nan nan nan nan nan nan nan nan nan nan nan nan nan nan nan nan 0 1 1 1 0 0 0 0 2 3 5 5 5 5 5 5 3 1 nan nan nan nan nan nan nan nan nan nan
nan nan nan nan nan nan nan nan nan nan nan nan nan nan nan nan nan nan nan nan nan nan nan nan nan nan nan nan nan nan nan nan nan nan nan nan nan nan nan nan nan nan nan nan nan nan nan nan nan nan nan nan nan nan nan nan nan 0 1 2 2 2 1 0 0 1 3 4 5 5 5 6 5 5 4 2 0 0 nan nan nan nan nan nan nan nan
nan nan nan nan nan nan nan nan nan nan nan nan nan nan nan nan nan nan nan nan nan nan nan nan nan nan nan nan nan nan nan nan nan nan nan nan nan nan nan nan nan nan nan nan nan nan nan nan nan nan nan nan nan nan nan nan nan 0 2 3 3 2 1 1 1 2 3 4 5 5 5 5 5 5 4 2 1 1 nan nan nan nan nan nan nan nan
nan nan nan nan nan nan nan nan nan nan nan nan nan nan nan nan nan nan nan nan nan nan nan nan nan nan nan nan nan nan nan nan nan nan nan nan nan nan nan nan nan nan nan nan nan nan nan nan nan nan nan nan nan nan nan nan nan 1 2 4 4 3 1 2 2 3 4 4 4 4 5 5 5 5 4 3 1 1 0 nan nan nan nan nan nan nan
nan nan nan nan nan nan nan nan nan nan nan nan nan nan nan nan nan nan nan nan nan nan nan nan nan nan nan nan nan nan nan nan nan nan nan nan nan nan nan nan nan nan nan nan nan nan nan nan nan nan nan nan nan nan nan 0 0 2 3 4 4 3 2 3 3 4 4 4 4 4 5 5 5 5 4 3 2 2 1 0 0 nan nan nan nan nan
nan nan nan nan nan nan nan nan nan nan nan nan nan nan nan nan nan nan nan nan nan nan nan nan nan nan nan nan nan nan nan nan nan nan nan nan nan nan nan nan nan nan nan nan nan nan nan nan nan nan nan nan nan nan nan 0 0 3 5 4 4 3 3 4 4 5 4 4 4 4 4 5 5 5 5 3 3 3 3 1 1 nan nan nan nan nan
nan nan nan nan nan nan nan nan nan nan nan nan nan nan nan nan nan nan nan nan nan nan nan nan nan nan nan nan nan nan nan nan nan nan nan nan nan nan nan nan nan nan nan nan nan nan nan nan nan nan nan nan nan nan nan 1 1 4 5 5 5 4 4 5 5 6 5 5 5 5 5 5 5 5 5 3 3 3 3 2 2 0 nan nan nan nan
nan nan nan nan nan nan nan nan nan nan nan nan nan nan nan nan nan nan nan nan nan nan nan nan nan nan nan nan nan nan nan nan nan nan nan nan nan nan nan nan nan nan nan nan nan nan nan nan nan nan nan nan nan nan 0 2 2 5 6 5 5 5 5 6 6 7 5 5 6 6 6 5 6 6 5 4 4 4 3 2 2 1 1 0 0 nan
nan nan nan nan nan nan nan nan nan nan nan nan nan nan nan nan nan nan nan nan nan nan nan nan nan nan nan nan nan nan nan nan nan nan nan nan nan nan nan nan nan nan nan nan nan nan nan nan nan nan nan nan nan nan nan 4 4 7 7 5 5 5 7 7 7 7 5 5 6 6 5 6 5 5 5 4 3 3 3 2 2 2 0 nan nan nan
nan nan nan nan nan nan nan nan nan nan nan 0 nan nan nan nan nan nan nan nan nan nan nan nan nan nan nan nan nan nan nan nan nan nan nan nan nan nan nan nan nan nan nan nan nan nan nan nan nan nan nan nan nan nan nan 7 7 7 8 7 7 6 7 7 7 7 6 5 5 5 5 5 5 5 5 4 3 3 3 2 2 2 nan nan nan nan
nan nan nan nan nan nan nan nan nan nan 0 0 nan nan nan nan nan nan nan nan nan nan nan nan nan nan nan nan nan nan nan nan nan nan nan nan nan nan nan nan nan nan nan nan nan nan nan nan nan nan nan nan nan nan nan nan nan 1 2 9 9 8 7 7 7 7 6 5 5 5 5 5 5 5 4 4 3 3 3 3 3 nan nan nan nan nan
nan nan nan nan nan nan nan nan nan nan 1 1 0 0 nan nan nan nan nan nan nan nan nan nan nan nan nan nan nan nan nan nan nan nan nan nan nan nan nan nan nan nan nan nan nan nan nan nan nan nan nan nan nan nan nan nan nan nan nan 0 0 4 7 6 6 6 5 5 6 6 6 5 5 5 4 3 3 3 3 5 5 nan nan nan nan nan
nan nan nan nan nan nan nan nan nan nan nan nan nan nan nan nan nan nan nan nan nan nan nan nan nan nan nan nan nan nan nan nan nan nan nan nan nan nan nan nan nan nan nan nan nan nan nan nan nan nan nan nan nan nan nan nan nan nan nan nan nan nan 3 14 14 6 4 7 6 6 5 4 4 4 4 3 3 3 3 4 4 nan nan nan nan nan
nan nan nan nan nan nan nan nan nan nan nan nan nan nan nan nan nan nan nan nan nan nan nan nan nan nan nan nan nan nan nan nan nan nan nan nan nan nan nan nan nan nan nan nan nan nan nan nan nan nan nan nan nan nan nan nan nan nan nan nan nan nan nan nan nan nan nan nan nan nan 7 4 5 5 3 3 3 3 4 5 5 2 nan nan nan nan
nan nan nan nan nan nan nan nan nan nan nan nan nan nan nan nan nan nan nan nan nan nan nan nan nan nan nan nan nan nan nan nan nan nan nan nan nan nan nan nan nan nan nan nan nan nan nan nan nan nan nan nan nan nan nan nan nan nan nan nan nan nan nan nan nan nan nan nan nan nan nan nan 0 0 1 3 3 3 3 4 4 5 2 nan nan nan
nan nan nan nan nan nan nan nan nan nan nan nan nan nan nan nan nan nan nan nan nan nan nan nan nan nan nan nan nan nan nan nan nan nan nan nan nan nan nan nan nan nan nan nan nan nan nan nan nan nan nan nan nan nan nan nan nan nan nan nan nan nan nan nan nan nan nan nan nan nan nan nan nan nan nan nan 2 2 4 5 5 5 4 0 0 nan
nan nan nan nan nan nan nan nan nan nan nan nan nan nan nan nan nan nan nan nan nan nan nan nan nan nan nan nan nan nan nan nan nan nan nan nan nan nan nan nan nan nan nan nan nan nan nan nan nan nan nan nan nan nan nan nan nan nan nan nan nan nan nan nan nan nan nan nan nan nan nan nan nan nan nan nan 3 3 4 4 4 4 4 3 3 nan
nan nan nan nan nan nan nan nan nan nan nan nan nan nan nan nan nan nan nan nan nan nan nan nan nan nan nan nan nan nan nan nan nan nan nan nan nan nan nan nan nan nan nan nan nan nan nan nan nan nan nan nan nan nan nan nan nan nan nan nan nan nan nan nan nan nan nan nan nan nan nan nan nan nan nan nan nan nan 1 5 5 3 4 3 3 1
nan nan nan nan nan nan nan nan nan nan nan nan nan nan nan nan nan nan nan nan nan nan nan nan nan nan nan nan nan nan nan nan nan nan nan nan nan nan nan nan nan nan nan nan nan nan nan nan nan nan nan nan nan nan nan nan nan nan nan nan nan nan nan nan nan nan nan nan nan nan nan nan nan nan nan nan nan nan nan nan nan nan 1 nan nan 2
nan nan nan nan nan nan nan nan nan nan nan nan nan nan nan nan nan nan nan nan nan nan nan nan nan nan nan nan nan nan nan nan nan nan nan nan nan nan nan nan nan nan nan nan nan nan nan nan nan nan nan nan nan nan nan nan nan nan nan nan nan nan nan nan nan nan nan nan nan nan nan nan nan nan nan nan nan nan nan nan nan nan nan nan nan nan
nan nan nan nan nan nan nan nan nan nan nan nan nan nan nan nan nan nan nan nan nan nan nan nan nan nan nan nan nan nan nan nan nan nan nan nan nan nan nan nan nan nan nan nan nan nan nan nan nan nan nan nan nan nan nan nan nan nan nan nan nan nan nan nan nan nan nan nan nan nan nan nan nan nan nan nan nan nan nan nan nan nan nan nan nan nan
nan nan nan nan nan nan nan nan nan nan nan nan nan nan nan nan nan nan nan nan nan nan nan nan nan nan nan nan nan nan nan nan nan nan nan nan nan nan nan nan nan nan nan nan nan nan nan nan nan nan nan nan nan nan nan nan nan nan nan nan nan nan nan nan nan nan nan nan nan nan nan nan nan nan nan nan nan nan nan nan nan nan nan nan nan nan
nan nan nan nan nan nan nan nan nan nan nan nan nan nan nan nan nan nan nan nan nan nan nan nan nan nan nan nan nan nan nan nan nan nan nan nan nan nan nan nan nan nan nan nan nan nan nan nan nan nan nan nan nan nan nan nan nan nan nan nan nan nan nan nan nan nan nan nan nan nan nan nan nan nan nan nan nan nan nan nan nan nan nan nan nan nan
nan nan nan nan nan nan nan nan nan nan nan nan nan nan nan nan nan nan nan nan nan nan nan nan nan nan nan nan nan nan nan nan nan nan nan nan nan nan nan nan nan nan nan nan nan nan nan nan nan nan nan nan nan nan nan nan nan nan nan nan nan nan nan nan nan nan nan nan nan nan nan nan nan nan nan nan nan nan nan nan nan nan nan nan nan nan
nan nan nan nan nan nan nan nan nan nan nan nan nan nan nan nan nan nan nan nan nan nan nan nan nan nan nan nan nan nan nan nan nan nan nan nan nan nan nan nan nan nan nan nan nan nan nan nan nan nan nan nan nan nan nan nan nan nan nan nan nan nan nan nan nan nan nan nan nan nan nan nan nan nan nan nan nan nan nan nan nan nan nan nan nan nan
nan nan nan nan nan nan nan nan nan nan nan nan nan nan nan nan nan nan nan nan nan nan nan nan nan nan nan nan nan nan nan nan nan nan nan nan nan nan nan nan nan nan nan nan nan nan nan nan nan nan nan nan nan nan nan nan nan nan nan nan nan nan nan nan nan nan nan nan nan nan nan nan nan nan nan nan nan nan nan nan nan nan nan nan nan nan
nan nan nan nan nan nan nan nan nan nan nan nan nan nan nan nan nan nan nan nan nan nan nan nan nan nan nan nan nan nan nan nan nan nan nan nan nan nan nan nan nan nan nan nan nan nan nan nan nan nan nan nan nan nan nan nan nan nan nan nan nan nan nan nan nan nan nan nan nan nan nan nan nan nan nan nan nan nan nan nan nan nan nan nan nan nan
nan nan nan nan nan nan nan nan nan nan nan nan nan nan nan nan nan nan nan nan nan nan nan nan nan nan nan nan nan nan nan nan nan nan nan nan nan nan nan nan nan nan nan nan nan nan nan nan nan nan nan nan nan nan nan nan nan nan nan nan nan nan nan nan nan nan nan nan nan nan nan nan nan nan nan nan nan nan nan nan nan nan nan nan nan nan
nan nan nan nan nan nan nan nan nan nan nan nan nan nan nan nan nan nan nan nan nan nan nan nan nan nan nan nan nan nan nan nan nan nan nan nan nan nan nan nan nan nan nan nan nan nan nan nan nan nan nan nan nan nan nan nan nan nan nan nan nan nan nan nan nan nan nan nan nan nan nan nan nan nan nan nan nan nan nan nan nan nan nan nan nan nan
nan nan nan nan nan nan nan nan nan nan nan nan nan nan nan nan nan nan nan nan nan nan nan nan nan nan nan nan nan nan nan nan nan nan nan nan nan nan nan nan nan nan nan nan nan nan nan nan nan nan nan nan nan nan nan nan nan nan nan nan nan nan nan nan nan nan nan nan nan nan nan nan nan nan nan nan nan nan nan nan nan nan nan nan nan nan
nan nan nan nan nan nan nan nan nan nan nan nan nan nan nan nan nan nan nan nan nan nan nan nan nan nan nan nan nan nan nan nan nan nan nan nan nan nan nan nan nan nan nan nan nan nan nan nan nan nan nan nan nan nan nan nan nan nan nan nan nan nan nan nan nan nan nan nan nan nan nan nan nan nan nan nan nan nan nan nan nan nan nan nan nan nan
nan nan nan nan nan nan nan nan nan nan nan nan nan nan nan nan nan nan nan nan nan nan nan nan nan nan nan nan nan nan nan nan nan nan nan nan nan nan nan nan nan nan nan nan nan nan nan nan nan nan nan nan nan nan nan nan nan nan nan nan nan nan nan nan nan nan nan nan nan nan nan nan nan nan nan nan nan nan nan nan nan nan nan nan nan nan
CIN
nan nan nan nan nan nan nan nan nan nan nan nan nan nan nan nan nan nan nan nan nan nan nan nan nan nan nan nan nan nan nan nan nan nan nan nan nan nan nan nan nan nan nan nan nan nan nan nan nan nan nan nan nan nan nan nan nan -0 -0 -0 -0 -0 -0 -0 -0 -0 -0 -0 -0 -0 -0 -0 nan nan nan nan nan nan nan nan nan nan nan nan nan nan
nan nan nan nan nan nan nan nan nan nan nan nan nan nan nan nan nan nan nan nan nan nan nan nan nan nan nan nan nan nan nan nan nan nan nan nan nan nan nan nan nan nan nan nan nan nan nan nan nan nan nan nan nan nan nan nan nan nan nan -0 -0 -0 -1 -0 -0 -0 -0 -0 -0 -0 -0 nan nan nan nan nan nan nan nan nan nan nan nan nan nan nan
nan nan nan nan nan nan nan nan nan nan nan nan nan nan nan nan nan nan nan nan nan nan nan nan nan nan nan nan nan nan nan nan nan nan nan nan nan nan nan nan nan nan nan nan nan nan nan nan nan nan nan nan nan nan nan nan nan nan nan nan nan nan -3 -0 -0 -0 -0 -0 -0 -0 -0 nan nan nan nan nan nan nan nan nan nan nan nan nan nan nan
nan nan nan nan nan nan nan nan nan nan nan nan nan nan nan nan nan nan nan nan nan nan nan nan nan nan nan nan -0 -0 nan nan nan nan nan nan nan nan nan nan nan nan nan nan nan nan nan nan nan nan nan nan nan nan nan nan nan nan nan nan nan nan nan nan nan nan nan nan nan nan nan nan nan nan nan nan nan nan nan nan nan nan nan nan nan nan
nan nan nan nan nan nan nan nan nan nan nan nan nan nan nan nan nan nan nan nan nan nan nan nan nan nan nan nan -1 -1 -0 -0 nan nan nan nan nan nan nan nan nan nan nan nan nan nan nan nan nan nan nan nan nan nan nan nan nan nan nan nan nan nan nan nan nan nan nan nan nan nan nan nan nan nan nan nan nan nan nan nan nan nan nan nan nan nan
nan nan nan nan nan nan nan nan nan nan nan nan nan nan nan nan nan nan nan nan nan nan nan nan nan nan nan nan -0 -0 -0 -0 nan nan nan nan nan nan nan nan nan nan nan nan nan nan nan nan nan nan nan nan nan nan nan nan nan nan nan nan nan nan nan nan nan nan nan nan nan nan nan nan nan nan nan nan nan nan nan nan nan nan nan nan nan nan
nan nan nan nan nan nan nan nan nan nan nan nan nan nan nan nan nan nan nan nan nan nan nan nan nan nan nan nan -1 -1 -0 -0 nan nan nan nan nan nan nan nan nan nan nan nan nan nan nan nan nan nan nan nan nan nan nan nan nan nan nan nan nan nan nan nan nan nan nan nan nan nan nan nan nan nan nan nan nan nan nan nan nan nan nan nan nan nan
nan nan nan nan nan nan nan nan nan nan nan nan nan nan nan nan nan nan nan nan nan nan nan nan nan nan nan nan nan nan nan nan nan nan nan nan nan nan nan nan nan nan nan nan nan nan nan nan nan nan nan nan nan nan nan nan nan nan nan nan nan nan nan nan nan nan nan nan nan nan nan nan nan nan nan nan nan nan nan nan nan nan nan nan nan nan
nan nan nan nan nan nan nan nan nan nan nan nan nan nan nan nan nan nan nan nan nan nan nan nan nan nan nan nan nan nan nan nan nan nan nan nan nan nan nan nan nan nan nan nan nan nan nan nan nan nan nan nan nan nan nan nan nan nan nan nan nan nan nan nan nan nan nan nan nan nan nan nan nan nan nan nan nan nan nan nan nan nan nan nan nan nan
nan nan nan nan nan nan nan nan nan nan nan nan nan nan nan nan nan nan nan nan nan nan nan nan nan nan nan nan nan nan nan nan -0 -0 nan nan nan nan nan nan nan nan nan nan nan nan nan nan nan nan nan nan nan nan nan nan nan nan nan nan nan nan nan nan nan nan nan nan nan nan nan nan nan nan nan nan nan nan nan nan nan nan nan nan nan nan
nan nan nan nan nan nan nan nan nan nan nan nan nan nan nan nan nan nan nan nan nan nan nan nan nan nan nan nan nan nan nan nan nan nan nan nan nan nan nan nan nan nan nan nan nan nan nan nan nan nan nan nan nan nan nan nan nan nan nan nan nan nan nan nan nan nan nan nan nan nan nan nan nan nan nan nan nan nan nan nan nan nan nan nan nan nan
nan nan nan nan nan nan nan nan nan nan nan nan nan nan nan nan nan nan nan nan nan nan nan nan nan nan nan nan nan nan nan nan nan nan nan nan nan nan nan nan nan nan nan nan nan nan nan nan nan nan nan nan nan nan nan nan nan nan nan nan nan nan nan nan nan nan nan nan nan nan nan nan nan nan nan nan nan nan nan nan nan nan nan nan nan nan
nan nan nan nan nan nan nan nan nan nan nan nan nan nan nan nan nan nan nan nan nan nan nan nan nan nan nan nan nan nan nan nan nan nan nan nan nan nan nan nan nan nan nan nan nan nan nan nan nan nan nan nan nan nan nan nan nan nan nan nan nan nan nan nan nan nan nan nan nan nan nan nan nan nan nan nan nan nan nan nan nan nan nan nan nan nan
nan nan nan nan nan nan nan nan nan nan nan nan nan nan nan nan nan nan nan nan nan nan nan nan nan nan nan nan nan nan nan nan nan nan nan nan nan nan nan nan nan nan nan nan nan nan nan nan nan nan nan nan nan nan nan nan nan nan nan nan nan nan nan nan nan nan nan nan nan nan nan nan nan nan nan nan nan nan nan nan nan nan nan nan nan -3
nan nan nan nan nan nan nan nan nan nan nan nan nan nan nan nan nan nan nan nan nan nan nan nan nan nan nan nan nan nan nan nan nan nan nan nan nan nan nan nan nan nan nan nan nan nan nan nan nan nan nan nan nan nan nan nan nan nan nan nan nan nan nan nan nan nan nan nan nan nan nan nan nan nan nan nan nan nan nan nan nan nan nan nan nan nan
nan nan nan nan nan nan nan nan nan nan nan nan nan nan nan nan nan nan nan nan nan nan nan nan nan nan nan nan nan nan nan nan nan nan nan nan nan nan nan nan nan nan nan nan nan nan nan nan nan nan nan nan nan nan nan nan nan nan nan nan nan nan nan nan nan nan nan nan -0 -0 -0 -0 -0 -0 nan nan nan nan nan nan nan nan nan nan nan nan
nan nan nan nan nan nan nan nan nan nan nan nan nan nan nan nan nan nan nan nan nan nan nan nan nan nan nan nan nan nan nan nan nan nan nan nan nan nan nan nan nan nan nan nan nan nan nan nan nan nan nan nan nan nan nan nan nan nan nan nan nan nan nan nan nan nan nan -0 -0 -0 -0 -0 -0 -0 -0 nan nan nan nan nan nan nan nan nan nan nan
nan nan nan nan nan nan nan nan nan nan nan nan nan nan nan nan nan nan nan nan nan nan nan nan nan nan nan nan nan nan nan nan nan nan nan nan nan nan nan nan nan nan nan nan nan nan nan nan nan nan nan nan nan nan nan nan nan nan nan nan nan nan nan nan nan nan -0 -0 -0 -0 -0 -0 -0 -0 -0 nan nan nan nan nan nan nan nan nan nan nan
nan nan nan nan nan nan nan nan nan nan nan nan nan nan nan nan nan nan nan nan nan nan nan nan nan nan nan nan nan nan nan nan nan nan nan nan nan nan nan nan nan nan nan nan nan nan nan nan nan nan nan nan nan nan nan nan nan nan -0 -0 -0 -0 nan nan nan nan -0 -0 -0 -0 -0 -0 -0 -0 -0 -0 nan nan nan nan nan nan nan nan nan nan
nan nan nan nan nan nan nan nan nan nan nan nan nan nan nan nan nan nan nan nan nan nan nan nan nan nan nan nan nan nan nan nan nan nan nan nan nan nan nan nan nan nan nan nan nan nan nan nan nan nan nan nan nan nan nan nan nan nan -0 -0 -0 -0 -0 -0 -0 -0 -0 -0 -0 -0 -0 -0 -0 -0 -0 -0 nan nan nan nan nan nan nan nan nan nan
nan nan nan nan nan nan nan nan nan nan nan nan nan nan nan nan nan nan nan nan nan nan nan nan nan nan nan nan nan nan nan nan nan nan nan nan nan nan nan nan nan nan nan nan nan nan nan nan nan nan nan nan nan nan nan nan nan -0 -0 -0 -0 -0 -0 -0 -0 -0 -0 -0 -0 -0 -0 -0 -0 -0 -0 -0 -0 -0 nan nan nan nan nan nan nan nan
nan nan nan nan nan nan nan nan nan nan nan nan nan nan nan nan nan nan nan nan nan nan nan nan nan nan nan nan nan nan nan nan nan nan nan nan nan nan nan nan nan nan nan nan nan nan nan nan nan nan nan nan nan nan nan nan nan -0 -0 -0 -0 -0 -0 -0 -0 -0 -0 -0 -0 -0 -0 -0 -0 -0 -0 -0 -0 -0 nan nan nan nan nan nan nan nan
nan nan nan nan nan nan nan nan nan nan nan nan nan nan nan nan nan nan nan nan nan nan nan nan nan nan nan nan nan nan nan nan nan nan nan nan nan nan nan nan nan nan nan nan nan nan nan nan nan nan nan nan nan nan nan nan nan -0 -0 -0 -0 -0 -0 -0 -0 -0 -0 -0 -0 -0 -0 -0 -0 -0 -0 -0 -0 -0 -0 nan nan nan nan nan nan nan
nan nan nan nan nan nan nan nan nan nan nan nan nan nan nan nan nan nan nan nan nan nan nan nan nan nan nan nan nan nan nan nan nan nan nan nan nan nan nan nan nan nan nan nan nan nan nan nan nan nan nan nan nan nan nan -0 -0 -0 -0 -0 -0 -0 -0 -0 -0 -0 -0 -0 -0 -0 -0 -0 -0 -0 -0 -0 -0 -0 -0 -0 -0 nan nan nan nan nan
nan nan nan nan nan nan nan nan nan nan nan nan nan nan nan nan nan nan nan nan nan nan nan nan nan nan nan nan nan nan nan nan nan nan nan nan nan nan nan nan nan nan nan nan nan nan nan nan nan nan nan nan nan nan nan -0 -0 -0 -0 -0 -0 -0 -0 -0 -0 -0 -0 -0 -0 -0 -0 -0 -0 -0 -0 -0 -0 -0 -0 -0 -0 nan nan nan nan nan
nan nan nan nan nan nan nan nan nan nan nan nan nan nan nan nan nan nan nan nan nan nan nan nan nan nan nan nan nan nan nan nan nan nan nan nan nan nan nan nan nan nan nan nan nan nan nan nan nan nan nan nan nan nan nan -0 -0 -0 -0 -0 -0 -0 -0 -0 -0 -0 -0 -0 -0 -0 -0 -0 -0 -0 -0 -0 -0 -0 -0 -0 -0 -0 nan nan nan nan
nan nan nan nan nan nan nan nan nan nan nan nan nan nan nan nan nan nan nan nan nan nan nan nan nan nan nan nan nan nan nan nan nan nan nan nan nan nan nan nan nan nan nan nan nan nan nan nan nan nan nan nan nan nan -0 -0 -0 -0 -0 -0 -0 -0 -0 -0 -0 -0 -0 -0 -0 -0 -0 -0 -0 -0 -0 -0 -0 -0 -0 -0 -0 -0 -0 -0 -0 nan
nan nan nan nan nan nan nan nan nan nan nan nan nan nan nan nan nan nan nan nan nan nan nan nan nan nan nan nan nan nan nan nan nan nan nan nan nan nan nan nan nan nan nan nan nan nan nan nan nan nan nan nan nan nan nan -0 -0 -0 -0 -0 -0 -0 -0 -0 -0 -0 -0 -0 -0 -0 -0 -0 -0 -0 -0 -0 -0 -0 -0 -0 -0 -0 -5 nan nan nan
nan nan nan nan nan nan nan nan nan nan nan -0 nan nan nan nan nan nan nan nan nan nan nan nan nan nan nan nan nan nan nan nan nan nan nan nan nan nan nan nan nan nan nan nan nan nan nan nan nan nan nan nan nan nan nan -0 -0 -0 -0 -0 -0 -0 -0 -0 -0 -0 -0 -0 -0 -0 -0 -0 -0 -0 -0 -0 -0 -0 -0 -0 -0 -0 nan nan nan nan
nan nan nan nan nan nan nan nan nan nan -0 -0 nan nan nan nan nan nan nan nan nan nan nan nan nan nan nan nan nan nan nan nan nan nan nan nan nan nan nan nan nan nan nan nan nan nan nan nan nan nan nan nan nan nan nan nan nan -16 -11 -0 -0 -0 -0 -0 -0 -0 -0 -0 -0 -0 -0 -0 -0 -0 -0 -0 -0 -0 -0 -0 -0 nan nan nan nan nan
nan nan nan nan nan nan nan nan nan nan -0 -0 -0 -0 nan nan nan nan nan nan nan nan nan nan nan nan nan nan nan nan nan nan nan nan nan nan nan nan nan nan nan nan nan nan nan nan nan nan nan nan nan nan nan nan nan nan nan nan nan -28 -28 -6 -0 -0 -0 -0 -0 -0 -0 -0 -0 -0 -0 -0 -0 -0 -0 -0 -0 -0 -0 nan nan nan nan nan
nan nan nan nan nan nan nan nan nan nan nan nan nan nan nan nan nan nan nan nan nan nan nan nan nan nan nan nan nan nan nan nan nan nan nan nan nan nan nan nan nan nan nan nan nan nan nan nan nan nan nan nan nan nan nan nan nan nan nan nan nan nan -8 -1 -1 -9 -10 -0 -0 -0 -0 -0 -0 -0 -0 -0 -0 -0 -0 -0 -0 nan nan nan nan nan
nan nan nan nan nan nan nan nan nan nan nan nan nan nan nan nan nan nan nan nan nan nan nan nan nan nan nan nan nan nan nan nan nan nan nan nan nan nan nan nan nan nan nan nan nan nan nan nan nan nan nan nan nan nan nan nan nan nan nan nan nan nan nan nan nan nan nan nan nan nan -0 -0 -0 -0 -0 -0 -0 -0 -0 -0 -0 -4 nan nan nan nan
nan nan nan nan nan nan nan nan nan nan nan nan nan nan nan nan nan nan nan nan nan nan nan nan nan nan nan nan nan nan nan nan nan nan nan nan nan nan nan nan nan nan nan nan nan nan nan nan nan nan nan nan nan nan nan nan nan nan nan nan nan nan nan nan nan nan nan nan nan nan nan nan -8 -8 -3 -0 -0 -0 -0 -0 -0 -0 -4 nan nan nan
nan nan nan nan nan nan nan nan nan nan nan nan nan nan nan nan nan nan nan nan nan nan nan nan nan nan nan nan nan nan nan nan nan nan nan nan nan nan nan nan nan nan nan nan nan nan nan nan nan nan nan nan nan nan nan nan nan nan nan nan nan nan nan nan nan nan nan nan nan nan nan nan nan nan nan nan -3 -3 -0 -0 -0 -0 -0 -13 -13 nan
nan nan nan nan nan nan nan nan nan nan nan nan nan nan nan nan nan nan nan nan nan nan nan nan nan nan nan nan nan nan nan nan nan nan nan nan nan nan nan nan nan nan nan nan nan nan nan nan nan nan nan nan nan nan nan nan nan nan nan nan nan nan nan nan nan nan nan nan nan nan nan nan nan nan nan nan -2 -2 -0 -0 -0 -0 -0 -2 -2 nan
nan nan nan nan nan nan nan nan nan nan nan nan nan nan nan nan nan nan nan nan nan nan nan nan nan nan nan nan nan nan nan nan nan nan nan nan nan nan nan nan nan nan nan nan nan nan nan nan nan nan nan nan nan nan nan nan nan nan nan nan nan nan nan nan nan nan nan nan nan nan nan nan nan nan nan nan nan nan -7 -0 -0 -2 -0 -0 -0 -4
nan nan nan nan nan nan nan nan nan nan nan nan nan nan nan nan nan nan nan nan nan nan nan nan nan nan nan nan nan nan nan nan nan nan nan nan nan nan nan nan nan nan nan nan nan nan nan nan nan nan nan nan nan nan nan nan nan nan nan nan nan nan nan nan nan nan nan nan nan nan nan nan nan nan nan nan nan nan nan nan nan nan -9 nan nan -1
nan nan nan nan nan nan nan nan nan nan nan nan nan nan nan nan nan nan nan nan nan nan nan nan nan nan nan nan nan nan nan nan nan nan nan nan nan nan nan nan nan nan nan nan nan nan nan nan nan nan nan nan nan nan nan nan nan nan nan nan nan nan nan nan nan nan nan nan nan nan nan nan nan nan nan nan nan nan nan nan nan nan nan nan nan nan
nan nan nan nan nan nan nan nan nan nan nan nan nan nan nan nan nan nan nan nan nan nan nan nan nan nan nan nan nan nan nan nan nan nan nan nan nan nan nan nan nan nan nan nan nan nan nan nan nan nan nan nan nan nan nan nan nan nan nan nan nan nan nan nan nan nan nan nan nan nan nan nan nan nan nan nan nan nan nan nan nan nan nan nan nan nan
nan nan nan nan nan nan nan nan nan nan nan nan nan nan nan nan nan nan nan nan nan nan nan nan nan nan nan nan nan nan nan nan nan nan nan nan nan nan nan nan nan nan nan nan nan nan nan nan nan nan nan nan nan nan nan nan nan nan nan nan nan nan nan nan nan nan nan nan nan nan nan nan nan nan nan nan nan nan nan nan nan nan nan nan nan nan
nan nan nan nan nan nan nan nan nan nan nan nan nan nan nan nan nan nan nan nan nan nan nan nan nan nan nan nan nan nan nan nan nan nan nan nan nan nan nan nan nan nan nan nan nan nan nan nan nan nan nan nan nan nan nan nan nan nan nan nan nan nan nan nan nan nan nan nan nan nan nan nan nan nan nan nan nan nan nan nan nan nan nan nan nan nan
nan nan nan nan nan nan nan nan nan nan nan nan nan nan nan nan nan nan nan nan nan nan nan nan nan nan nan nan nan nan nan nan nan nan nan nan nan nan nan nan nan nan nan nan nan nan nan nan nan nan nan nan nan nan nan nan nan nan nan nan nan nan nan nan nan nan nan nan nan nan nan nan nan nan nan nan nan nan nan nan nan nan nan nan nan nan
nan nan nan nan nan nan nan nan nan nan nan nan nan nan nan nan nan nan nan nan nan nan nan nan nan nan nan nan nan nan nan nan nan nan nan nan nan nan nan nan nan nan nan nan nan nan nan nan nan nan nan nan nan nan nan nan nan nan nan nan nan nan nan nan nan nan nan nan nan nan nan nan nan nan nan nan nan nan nan nan nan nan nan nan nan nan
nan nan nan nan nan nan nan nan nan nan nan nan nan nan nan nan nan nan nan nan nan nan nan nan nan nan nan nan nan nan nan nan nan nan nan nan nan nan nan nan nan nan nan nan nan nan nan nan nan nan nan nan nan nan nan nan nan nan nan nan nan nan nan nan nan nan nan nan nan nan nan nan nan nan nan nan nan nan nan nan nan nan nan nan nan nan
nan nan nan nan nan nan nan nan nan nan nan nan nan nan nan nan nan nan nan nan nan nan nan nan nan nan nan nan nan nan nan nan nan nan nan nan nan nan nan nan nan nan nan nan nan nan nan nan nan nan nan nan nan nan nan nan nan nan nan nan nan nan nan nan nan nan nan nan nan nan nan nan nan nan nan nan nan nan nan nan nan nan nan nan nan nan
nan nan nan nan nan nan nan nan nan nan nan nan nan nan nan nan nan nan nan nan nan nan nan nan nan nan nan nan nan nan nan nan nan nan nan nan nan nan nan nan nan nan nan nan nan nan nan nan nan nan nan nan nan nan nan nan nan nan nan nan nan nan nan nan nan nan nan nan nan nan nan nan nan nan nan nan nan nan nan nan nan nan nan nan nan nan
nan nan nan nan nan nan nan nan nan nan nan nan nan nan nan nan nan nan nan nan nan nan nan nan nan nan nan nan nan nan nan nan nan nan nan nan nan nan nan nan nan nan nan nan nan nan nan nan nan nan nan nan nan nan nan nan nan nan nan nan nan nan nan nan nan nan nan nan nan nan nan nan nan nan nan nan nan nan nan nan nan nan nan nan nan nan
nan nan nan nan nan nan nan nan nan nan nan nan nan nan nan nan nan nan nan nan nan nan nan nan nan nan nan nan nan nan nan nan nan nan nan nan nan nan nan nan nan nan nan nan nan nan nan nan nan nan nan nan nan nan nan nan nan nan nan nan nan nan nan nan nan nan nan nan nan nan nan nan nan nan nan nan nan nan nan nan nan nan nan nan nan nan
nan nan nan nan nan nan nan nan nan nan nan nan nan nan nan nan nan nan nan nan nan nan nan nan nan nan nan nan nan nan nan nan nan nan nan nan nan nan nan nan nan nan nan nan nan nan nan nan nan nan nan nan nan nan nan nan nan nan nan nan nan nan nan nan nan nan nan nan nan nan nan nan nan nan nan nan nan nan nan nan nan nan nan nan nan nan
nan nan nan nan nan nan nan nan nan nan nan nan nan nan nan nan nan nan nan nan nan nan nan nan nan nan nan nan nan nan nan nan nan nan nan nan nan nan nan nan nan nan nan nan nan nan nan nan nan nan nan nan nan nan nan nan nan nan nan nan nan nan nan nan nan nan nan nan nan nan nan nan nan nan nan nan nan nan nan nan nan nan nan nan nan nan
Wind_Speed
2 3 3 4 4 4 4 5 6 5 4 3 3 2 3 3 3 4 6 6 6 6 5 6 6 8 10 14 16 17 17 17 16 15 14 13 13 13 12 12 12 11 11 10 10 9 9 8 8 8 8 8 8 8 8 7 7 6 6 5 6 7 8 8 9 9 9 9 9 9 9 9 9 8 8 8 8 7 7 7 6 5 5 4 3 3
2 3 2 3 4 4 3 4 5 5 5 4 4 3 3 3 3 3 4 5 6 6 6 6 6 7 8 11 14 17 17 17 16 15 14 14 13 13 12 12 12 11 11 10 10 9 9 8 8 8 8 8 8 8 8 8 8 8 8 7 6 6 6 6 7 8 8 9 9 9 9 9 9 8 8 8 7 7 7 6 6 5 4 4 3 3
3 3 2 3 3 3 3 4 4 4 5 4 4 4 4 4 3 3 3 4 5 5 5 6 6 7 7 9 13 16 17 17 16 15 15 14 13 13 13 12 12 11 11 10 10 9 9 8 8 8 7 7 7 7 7 7 8 8 8 8 8 8 7 7 7 8 8 9 9 9 9 9 8 8 8 7 7 7 6 6 5 5 4 3 3 3
4 4 3 2 2 2 3 3 4 4 4 4 4 4 4 4 3 2 2 3 4 5 5 6 6 6 6 7 10 14 16 16 16 16 15 14 14 13 13 13 12 12 11 11 10 10 9 8 8 8 7 7 7 7 7 7 7 7 7 8 8 8 9 9 9 9 9 9 9 9 8 8 8 8 7 7 7 7 6 6 5 4 3 3 2 2
4 4 4 3 2 2 2 3 3 3 3 3 3 3 3 3 2 2 2 3 4 4 5 5 6 6 5 6 9 13 16 16 16 16 15 15 14 14 13 13 13 12 12 11 11 10 9 9 8 8 7 7 7 7 6 6 6 6 7 7 7 8 8 8 8 9 9 8 8 8 8 8 7 7 7 7 7 6 6 5 5 4 3 2 2 2
3 3 3 3 2 2 2 2 3 3 3 3 3 3 3 2 2 2 2 3 3 4 4 4 4 5 5 6 9 12 15 16 16 16 16 15 15 14 14 13 13 13 12 11 11 10 10 9 9 8 8 7 7 7 6 6 6 6 6 6 6 6 7 7 7 7 7 7 8 8 8 7 7 7 7 7 6 6 6 5 4 4 3 2 1 1
4 3 3 2 2 1 1 2 3 3 3 3 2 2 3 2 2 2 2 2 2 3 3 3 3 4 4 6 8 11 13 15 15 16 15 15 15 15 14 14 13 13 12 12 11 11 10 10 9 9 8 8 7 7 7 6 6 6 5 5 5 5 6 6 6 6 6 7 7 7 7 7 7 7 7 6 6 6 5 5 4 3 2 2 1 1
4 3 2 2 2 1 1 2 2 3 3 3 3 3 2 2 2 2 2 2 2 2 3 3 3 3 3 4 6 8 9 11 11 12 13 14 14 14 14 14 14 13 13 12 12 11 10 10 9 9 8 8 8 7 7 7 6 6 5 5 5 5 5 5 5 5 6 6 6 7 7 7 7 7 7 6 6 5 5 4 4 3 2 2 1 1
6 5 3 3 3 2 2 2 2 2 3 3 3 3 3 3 2 2 2 2 1 1 2 3 3 3 2 3 4 5 7 7 7 7 8 8 9 10 12 13 13 13 13 12 12 11 10 10 9 9 8 8 8 7 7 7 6 6 5 5 5 4 5 5 5 5 5 5 6 6 6 7 7 7 6 6 6 5 5 4 3 2 2 2 1 1
6 6 5 3 3 3 3 3 2 2 2 2 2 3 3 4 4 3 2 1 0 0 1 3 3 3 3 2 3 4 6 7 7 8 8 8 8 9 10 11 11 11 12 12 11 11 10 10 9 9 8 8 8 7 7 7 6 6 5 5 5 4 4 5 5 5 5 5 5 6 6 6 6 7 6 6 6 5 4 3 3 2 1 1 1 1
5 5 5 4 2 2 2 2 2 2 3 2 2 1 1 3 4 5 5 4 2 1 1 2 2 3 3 3 3 4 4 5 6 8 9 10 10 10 10 10 10 11 12 12 11 11 10 10 9 9 8 8 7 7 7 6 6 6 5 5 5 4 5 5 5 5 5 5 5 6 6 6 6 7 6 6 5 5 4 3 2 2 2 2 1 1
5 4 4 3 3 2 2 2 2 3 3 3 2 2 2 2 3 5 6 6 5 4 3 2 1 1 1 3 3 4 4 4 4 5 5 6 7 8 8 7 8 9 10 10 10 10 10 10 9 9 8 8 7 7 6 6 6 6 5 5 5 5 5 5 5 5 5 5 5 6 6 6 7 7 7 6 5 5 4 3 2 2 3 3 2 1
4 3 3 3 3 3 3 3 3 3 4 4 5 5 5 4 3 3 4 6 6 5 4 3 1 1 2 1 2 3 4 4 4 4 3 3 3 3 4 4 4 4 4 5 4 5 7 8 9 8 8 8 7 7 6 6 6 6 5 5 5 5 5 5 5 5 5 5 6 6 6 7 7 7 7 6 6 5 4 3 2 2 3 3 3 3
4 4 4 4 4 4 4 4 5 5 6 5 5 5 4 4 4 3 3 4 4 4 3 3 2 1 1 2 1 1 4 4 4 3 3 2 2 2 3 3 3 3 3 3 2 2 3 5 5 6 7 7 7 6 6 6 6 6 6 5 5 5 5 4 5 5 5 6 6 6 7 7 7 7 7 7 6 6 5 4 3 3 4 5 5 6
5 5 5 5 5 5 5 5 6 6 6 5 4 3 4 4 4 4 4 4 4 3 3 3 2 1 1 1 1 0 3 5 5 4 4 2 1 1 2 3 3 3 3 3 2 2 3 3 3 3 4 4 4 4 5 5 6 6 6 6 5 5 5 5 5 5 5 6 6 7 7 7 8 8 8 7 7 6 6 5 4 4 5 6 7 8
5 5 6 6 6 5 5 5 5 5 5 5 4 4 5 5 5 5 5 5 5 4 4 4 3 1 0 1 1 0 2 4 5 5 5 2 0 1 1 3 4 3 2 3 2 1 1 2 2 2 2 4 5 6 6 6 6 6 6 6 6 5 5 5 5 5 5 6 7 7 8 8 8 8 8 8 7 7 6 5 5 5 6 7 8 9
5 5 6 6 6 5 5 5 5 5 5 5 5 5 6 6 6 6 5 5 5 4 5 5 5 4 2 1 1 1 2 4 5 5 5 4 1 1 1 3 4 4 3 3 2 2 1 1 1 1 2 5 6 7 7 7 7 7 7 6 6 6 6 6 5 5 5 6 7 7 8 8 8 8 8 8 7 7 6 6 6 6 6 7 8 9
6 6 6 6 6 5 5 5 4 4 5 5 5 5 5 5 5 5 5 5 5 5 6 6 5 5 4 4 3 3 3 3 4 5 5 4 2 1 1 1 3 4 4 3 2 2 1 1 2 2 3 6 8 8 8 8 8 7 7 7 7 6 6 6 6 6 6 6 7 8 8 8 8 8 8 7 7 7 6 6 6 6 7 7 8 8
6 6 6 6 6 5 5 5 6 6 6 6 6 6 5 5 5 5 5 5 6 6 6 6 5 5 4 4 4 4 4 4 4 5 5 5 3 1 1 1 3 4 3 3 3 2 1 1 2 4 6 8 8 8 8 8 8 8 8 7 7 7 7 7 7 7 7 7 7 8 8 9 9 8 8 7 7 7 6 6 6 6 7 7 7 8
6 7 7 6 5 6 6 6 7 7 7 7 6 6 6 6 6 6 5 6 6 6 5 5 5 5 4 4 4 5 5 4 4 5 5 5 3 2 0 2 3 4 3 3 2 1 1 1 2 4 7 8 8 9 8 8 8 8 8 8 7 7 7 7 8 8 8 8 8 8 9 9 9 8 8 8 7 7 7 7 7 7 7 7 7 8
6 7 6 6 6 6 6 6 7 7 8 8 7 7 6 6 6 6 6 6 5 5 5 5 5 4 3 4 5 7 8 7 6 5 4 4 3 2 1 2 3 4 4 3 2 1 1 1 1 2 5 8 9 9 8 8 8 8 8 8 8 8 8 8 8 8 8 8 8 9 9 9 9 8 8 8 7 7 7 7 7 7 7 7 7 7
6 6 6 6 6 6 6 6 7 8 9 9 8 7 6 7 6 6 6 6 6 6 6 5 3 2 2 3 5 7 9 8 7 6 4 4 3 3 1 2 3 4 4 3 2 1 0 0 1 2 5 8 9 9 9 8 9 9 9 8 8 8 8 8 9 9 9 9 9 9 9 9 9 8 8 8 8 8 7 7 7 7 7 7 7 7
5 5 5 5 5 5 5 6 7 8 9 9 8 7 6 7 7 7 7 7 6 5 4 2 2 2 2 3 4 6 7 6 5 5 5 5 5 4 2 2 3 3 3 3 2 1 1 1 1 1 3 8 9 9 9 9 9 9 9 9 8 8 8 9 9 9 10 10 10 9 9 9 9 8 8 8 8 8 8 8 7 7 7 7 7 7
4 4 5 5 4 4 5 6 7 7 7 7 6 6 5 6 5 5 5 5 4 4 4 4 3 3 3 3 4 4 5 4 4 4 4 5 4 4 3 3 4 4 3 2 2 2 1 1 0 1 2 6 8 9 9 9 9 9 9 9 9 9 9 9 9 9 10 10 10 10 9 9 9 9 8 8 8 8 8 8 8 7 7 7 7 7
4 4 4 5 5 5 6 7 8 8 8 7 5 5 4 5 5 5 4 5 5 5 5 4 3 3 2 3 3 4 4 2 2 3 4 3 3 3 3 4 4 4 3 2 1 2 2 1 0 1 2 4 7 9 10 10 10 10 10 9 9 9 9 9 9 10 10 10 10 10 10 9 9 9 9 8 8 8 8 8 8 8 7 7 7 6
5 5 6 6 8 9 11 12 12 13 12 9 7 5 5 6 6 6 5 5 5 5 5 4 4 3 2 2 3 3 3 1 1 1 3 4 4 3 3 3 3 3 3 2 1 1 2 1 1 1 2 3 5 8 10 10 10 10 10 10 10 10 10 10 10 10 10 10 10 10 10 10 9 9 9 9 8 8 8 8 8 8 7 7 6 6
8 8 9 10 11 12 14 15 16 17 17 14 11 9 8 7 7 6 6 5 6 6 6 5 4 3 2 2 3 3 3 2 1 1 2 4 4 4 3 3 3 3 3 2 1 1 2 2 1 1 2 2 3 4 9 10 11 10 10 10 10 10 10 10 10 10 10 10 10 10 10 10 9 9 9 9 9 8 8 8 8 8 7 6 5 4
9 10 10 11 12 13 14 16 18 18 19 18 17 15 11 8 8 7 7 6 7 6 6 6 5 4 3 3 3 3 3 3 3 2 2 3 4 3 3 3 3 4 4 2 1 1 1 1 1 1 2 2 2 3 6 9 11 11 11 11 11 11 10 10 10 10 10 10 10 10 10 10 9 9 9 9 9 9 8 8 8 8 7 5 3 2
8 9 9 10 11 12 14 15 16 17 19 19 18 16 12 8 7 8 7 7 7 7 7 6 5 4 4 3 2 2 2 3 3 3 3 3 3 3 4 3 3 3 4 3 2 2 2 1 1 1 2 2 2 2 3 6 8 9 10 11 11 11 11 11 10 10 10 10 10 10 10 10 9 9 9 9 9 9 9 8 8 7 5 4 3 2
5 6 6 7 8 9 10 10 12 14 17 19 18 15 10 7 6 6 7 8 8 7 7 6 5 4 4 4 3 2 3 4 4 4 4 4 4 4 4 4 4 4 4 3 2 1 1 2 2 1 1 2 2 2 2 2 3 4 6 8 10 10 11 11 11 11 10 10 10 10 10 10 9 9 9 9 9 9 9 8 7 6 4 3 3 2
4 4 4 4 5 5 6 6 7 10 13 15 14 12 8 5 5 5 7 8 8 7 7 6 5 5 5 5 4 4 4 4 5 5 4 4 4 4 5 5 4 4 3 4 3 2 1 2 2 1 1 1 1 1 1 1 1 1 2 3 5 7 10 11 11 10 10 10 10 10 10 10 9 9 9 9 9 9 9 8 7 6 4 3 2 2
4 4 3 3 3 3 4 4 5 5 7 8 8 7 5 5 5 5 6 7 7 7 6 6 6 6 6 5 5 5 3 4 6 7 6 4 3 3 5 5 5 3 2 2 3 4 3 2 2 1 0 1 1 1 1 1 1 1 2 2 2 4 9 10 9 9 9 10 10 10 10 9 9 9 9 9 9 9 9 9 7 6 4 3 3 2
4 3 3 3 3 3 3 3 3 4 4 4 4 3 4 4 4 5 5 5 6 6 6 6 6 6 6 5 4 3 2 3 6 9 8 5 4 3 4 5 5 4 2 1 2 3 3 2 2 1 1 1 1 1 1 1 1 1 2 2 2 2 5 6 5 5 5 6 7 8 9 9 9 9 9 9 9 9 9 9 8 7 5 4 3 3
4 4 4 4 3 3 3 3 4 4 4 3 3 3 3 3 3 4 4 3 4 4 5 6 6 6 6 5 3 2 1 2 7 10 10 6 4 4 5 6 6 5 3 2 2 2 2 2 2 2 2 1 1 1 1 1 1 1 1 2 2 2 2 2 2 3 2 2 2 2 3 4 6 7 7 8 8 8 8 9 8 8 7 5 4 3
5 4 4 4 4 4 4 4 4 4 4 3 3 3 3 3 3 3 3 3 2 2 2 4 5 6 7 6 5 3 2 3 7 11 10 7 5 4 5 6 6 6 5 4 3 2 2 2 3 3 3 3 2 1 1 1 0 0 0 2 2 2 2 2 2 2 2 2 2 2 2 1 1 2 4 5 7 7 8 8 8 8 8 7 6 4
5 5 4 4 4 4 4 4 4 4 4 3 3 3 3 3 3 3 3 3 3 3 3 2 2 2 4 5 5 5 4 5 8 11 11 7 6 5 5 5 6 7 6 5 4 3 3 3 3 4 5 4 3 2 2 1 0 1 1 1 2 2 1 2 2 2 3 2 2 1 1 1 1 0 1 4 6 7 7 8 8 8 8 8 7 6
5 5 5 4 5 5 5 4 4 4 3 3 3 3 3 3 3 3 3 3 3 3 4 4 3 3 3 2 3 4 5 6 8 10 11 8 6 5 5 5 6 7 7 6 5 4 4 4 4 4 4 3 3 3 2 2 1 1 1 1 1 1 1 1 2 3 3 3 2 2 1 1 1 1 0 3 4 5 6 7 7 7 8 8 8 8
5 5 5 4 4 4 5 4 4 4 3 3 3 3 3 4 4 4 3 4 4 4 4 4 4 4 6 5 4 4 5 7 9 10 10 8 6 5 5 5 6 7 6 6 6 6 5 5 5 5 4 3 2 2 3 4 4 3 2 1 1 1 1 1 1 2 3 3 3 3 2 2 1 1 0 1 1 1 2 2 3 3 5 6 7 8
6 5 5 5 5 4 4 4 4 4 4 4 4 4 4 4 5 5 4 4 4 5 5 5 5 5 6 6 6 6 6 6 7 7 8 7 6 5 5 6 6 6 5 4 5 5 6 5 6 5 5 3 2 2 2 4 4 4 3 1 1 0 0 1 1 2 3 3 3 3 2 1 1 1 1 1 1 1 1 1 1 1 0 0 2 4
6 6 6 5 5 4 4 4 4 4 4 4 5 5 5 5 5 5 4 4 5 5 5 6 6 5 6 6 7 7 6 5 5 5 5 4 4 4 5 6 6 6 5 4 3 4 5 5 5 5 5 4 4 3 3 4 4 4 5 3 2 2 2 1 2 2 2 3 4 4 3 2 2 2 2 2 2 2 2 2 1 1 2 2 1 1
6 5 5 5 4 4 4 4 4 4 5 5 4 4 4 4 4 4 4 4 4 4 4 5 6 6 6 6 5 5 6 5 4 4 3 2 3 4 5 6 6 6 6 4 3 3 4 4 4 4 4 3 4 4 4 5 6 7 7 5 3 3 2 2 2 2 2 3 3 4 4 3 3 2 2 3 2 2 2 2 2 1 1 2 2 3
7 6 5 4 4 4 4 4 5 5 5 4 4 4 4 4 4 4 4 3 3 3 3 3 4 4 5 4 4 4 5 4 4 4 3 2 3 4 5 5 6 6 6 5 4 3 3 4 5 5 4 4 4 3 3 4 5 7 7 5 3 2 1 2 2 2 3 3 3 3 5 4 3 3 3 3 2 1 1 2 2 3 2 2 2 3
6 5 4 4 4 5 5 6 6 5 4 4 4 3 3 4 4 5 5 4 4 4 3 3 4 4 4 3 3 3 4 4 4 3 3 3 3 4 5 6 6 6 6 5 4 3 2 3 3 4 5 5 5 4 4 4 5 5 6 5 5 4 2 2 2 2 3 3 3 3 3 3 2 2 2 2 1 0 0 1 2 2 3 3 3 2
5 4 4 4 5 5 5 5 5 5 4 4 4 3 3 3 4 5 4 4 4 4 3 3 3 4 4 4 3 2 2 3 4 4 4 4 4 4 5 6 7 7 6 6 5 4 3 2 2 3 3 4 4 5 5 5 5 5 5 5 5 5 4 3 3 4 4 3 3 3 3 3 3 2 2 1 1 1 0 0 1 1 1 2 2 2
5 5 5 5 5 5 5 5 5 5 4 4 4 4 3 3 4 4 4 4 4 4 3 4 4 4 3 3 2 2 1 2 3 4 5 6 5 5 4 5 5 6 6 6 6 5 5 4 3 2 2 3 3 4 5 6 6 5 5 6 5 4 2 2 3 4 5 4 3 3 2 3 3 3 2 1 0 0 0 1 1 1 1 1 2 2
5 5 6 5 5 6 6 6 5 5 4 4 4 4 3 3 3 4 5 5 5 4 3 3 4 4 4 4 3 3 2 1 2 3 3 4 4 4 4 3 4 4 5 4 4 4 5 5 5 4 3 2 2 3 4 6 6 5 5 6 5 3 1 1 2 4 5 5 4 3 3 3 3 3 2 2 1 1 1 1 2 3 3 2 2 3
7 7 7 6 6 6 6 5 5 5 5 5 4 4 3 3 3 4 4 5 5 4 4 3 3 4 5 5 5 4 4 3 2 1 2 2 3 3 4 4 4 4 4 4 3 3 3 4 5 6 5 4 3 3 3 4 5 6 6 5 5 4 2 2 2 3 4 5 5 4 4 4 3 3 3 2 1 1 1 1 2 3 3 3 3 3
8 8 7 7 6 6 6 6 5 5 5 5 4 4 4 4 5 5 4 4 5 5 4 3 3 4 4 4 5 5 5 5 4 3 2 1 2 2 3 3 4 4 4 4 4 3 3 3 3 4 5 5 5 4 4 4 4 5 5 5 5 4 3 3 3 3 4 4 5 5 5 4 4 4 3 2 1 1 2 2 2 2 3 3 3 3
8 8 8 7 7 7 6 6 6 6 6 6 5 4 4 5 6 6 4 4 5 5 5 5 5 4 4 4 4 4 5 5 4 4 3 2 2 2 3 3 3 3 4 4 3 3 2 2 2 2 3 4 5 5 5 5 4 4 4 5 5 4 3 3 3 3 3 4 4 5 5 4 4 4 4 3 2 2 2 2 2 3 3 3 3 3
8 8 8 8 7 7 7 7 7 7 7 7 6 5 5 4 4 4 4 4 4 4 4 5 5 5 5 5 5 5 5 5 4 4 4 3 3 3 3 3 3 3 3 3 3 2 2 2 2 1 1 3 4 5 5 5 4 4 3 4 4 4 4 3 3 4 4 4 4 4 4 3 3 3 4 4 3 2 1 2 2 3 3 2 3 3
8 7 7 7 7 7 7 7 7 7 7 7 7 6 6 5 4 4 3 4 4 4 4 4 5 5 6 6 6 6 6 5 5 5 5 4 4 4 4 4 4 4 4 3 2 2 2 1 1 2 3 3 5 6 5 6 6 5 4 3 3 3 3 3 3 4 4 4 4 4 4 4 3 3 4 4 3 2 1 2 2 3 3 2 2 3
Wind_Direction
127 142 144 141 135 129 131 135 135 134 137 136 134 130 124 129 138 145 146 141 137 134 134 139 142 144 144 144 144 143 142 141 140 139 138 135 132 129 126 124 122 119 116 113 110 106 101 96 90 84 79 75 72 69 67 66 68 73 83 101 122 137 145 149 153 154 147 142 135 127 121 117 112 107 102 97 92 86 80 76 71 65 59 52 48 48
129 127 126 131 129 127 130 141 143 145 148 149 149 144 134 131 132 136 140 140 139 138 138 140 143 145 146 146 145 145 144 143 142 141 139 137 134 132 129 127 124 122 120 117 115 111 107 103 97 91 85 80 76 71 66 63 60 59 60 68 79 94 113 130 139 140 135 130 125 121 118 115 113 109 105 100 94 87 81 75 69 63 56 48 43 43
141 129 130 129 129 131 134 147 151 151 150 151 149 144 135 131 129 130 135 138 139 139 140 143 144 145 146 146 147 147 146 145 144 142 141 139 136 134 131 129 127 125 123 121 119 116 113 108 104 99 93 88 83 78 73 69 64 60 59 61 64 69 78 87 97 105 109 111 112 113 114 115 114 112 108 102 96 89 82 75 69 62 53 44 38 39
140 135 143 134 130 131 138 148 150 148 144 140 135 130 123 122 121 123 130 136 139 140 141 144 145 145 146 148 150 150 149 147 146 144 143 141 139 137 134 132 130 128 126 124 121 119 116 112 109 105 101 96 92 88 83 78 73 69 67 66 67 69 72 76 82 89 93 99 104 108 112 114 115 113 110 104 99 92 85 79 72 64 55 44 36 36
137 137 144 137 129 127 133 141 142 139 131 123 117 111 104 103 104 106 110 126 134 139 141 144 146 147 147 150 152 152 151 149 148 146 145 143 142 139 137 135 133 131 129 126 124 121 119 115 112 109 105 102 99 96 92 88 85 81 78 77 77 78 79 82 86 89 94 99 103 107 110 112 112 112 109 106 101 96 91 84 77 70 60 46 33 29
136 135 138 135 129 125 127 143 145 140 128 114 102 93 86 83 82 89 102 120 131 136 140 143 146 148 148 151 154 154 152 151 150 149 147 146 144 142 140 138 136 133 132 129 127 124 121 118 115 111 109 106 103 101 99 97 94 92 90 89 89 90 91 92 94 95 98 102 104 106 107 107 107 107 106 104 102 99 94 89 84 78 72 58 39 25
133 132 132 122 113 110 119 148 154 153 144 129 110 90 73 65 65 73 87 112 126 131 132 132 136 141 147 151 153 153 152 151 151 150 149 148 146 144 142 140 138 136 134 132 130 127 124 121 117 114 111 109 106 104 103 101 100 99 99 99 101 103 104 104 104 105 105 107 108 108 108 106 105 103 102 100 99 97 94 91 89 87 88 84 69 36
137 140 140 126 115 109 113 144 158 161 155 146 136 121 101 78 67 66 65 75 99 121 128 126 127 133 144 149 151 151 151 151 151 151 150 149 147 146 144 142 141 139 137 135 133 130 127 124 121 118 114 111 108 106 104 102 102 102 103 106 110 114 116 117 116 116 115 115 116 115 114 112 109 105 101 97 94 92 91 90 89 92 102 108 110 99
145 150 155 149 142 138 136 145 158 163 159 153 150 147 142 136 119 91 69 62 71 110 136 138 139 139 141 143 145 146 146 148 149 150 150 148 148 147 145 144 142 141 140 138 136 134 131 129 126 122 118 115 111 107 105 103 102 102 104 108 114 120 124 125 126 126 127 126 125 124 123 120 116 112 106 100 95 91 87 83 81 82 93 107 119 122
148 152 154 153 150 147 148 151 153 155 152 146 149 152 154 153 149 141 126 119 91 113 144 148 146 145 141 136 137 140 142 145 147 148 146 145 146 145 145 144 144 143 143 141 140 138 136 134 131 128 123 119 115 111 107 105 104 104 105 108 113 120 124 127 130 132 133 133 132 132 130 127 124 120 115 109 103 97 88 79 66 51 38 54 92 113
149 152 150 146 139 130 131 137 139 138 136 124 116 123 161 164 160 158 158 162 167 166 150 135 135 139 143 143 142 140 139 141 144 146 145 145 145 144 144 144 145 145 144 143 142 142 141 139 136 133 128 124 120 117 113 110 109 109 109 111 114 119 123 127 132 135 137 137 136 136 135 133 130 127 123 120 115 109 100 84 58 28 4 355 357 37
149 151 148 144 138 127 114 110 114 123 134 136 142 162 197 196 180 169 166 167 167 166 157 127 81 72 124 145 146 143 137 134 136 138 141 142 143 143 142 143 143 142 141 140 141 143 144 143 141 136 132 129 126 124 121 119 118 117 117 117 118 121 124 129 134 139 141 142 141 141 140 138 136 134 132 131 129 126 120 105 73 28 3 357 0 18
145 144 141 143 147 149 143 134 135 146 163 172 177 180 183 186 185 178 169 167 166 163 155 136 88 24 5 55 140 145 143 137 133 130 129 127 126 127 130 126 123 122 124 123 127 137 144 144 142 138 136 133 131 130 131 131 130 128 127 126 125 125 126 132 137 142 146 147 147 146 145 143 141 139 138 139 140 140 136 124 97 54 22 18 23 31
142 140 140 151 160 166 165 160 163 170 183 188 186 179 168 164 166 168 160 157 153 148 138 130 112 65 4 355 12 142 147 140 134 129 124 115 107 109 119 115 111 103 96 91 86 94 117 130 134 136 137 135 134 134 138 139 139 140 139 137 135 133 133 135 139 145 149 151 152 151 149 147 144 143 142 144 145 145 142 131 108 74 48 40 39 42
151 151 156 167 174 177 176 175 177 180 184 182 173 156 138 149 159 165 159 154 145 134 125 124 112 81 17 344 338 121 153 145 141 139 135 125 87 79 114 120 117 108 98 102 99 86 74 90 105 119 126 133 138 143 149 149 150 150 149 148 146 144 143 142 144 148 151 153 154 153 151 148 145 144 143 145 146 145 140 128 108 84 63 54 50 49
160 163 171 177 181 182 182 181 181 180 175 169 160 153 151 161 168 171 166 157 150 144 145 146 142 135 319 320 317 270 167 153 149 148 145 145 123 19 95 127 127 122 112 117 120 114 61 71 92 113 125 148 155 158 161 161 160 158 158 157 156 156 155 154 153 153 154 155 154 153 151 147 145 143 142 143 143 141 136 124 108 90 75 65 59 57
168 174 179 181 183 184 181 180 179 174 165 164 164 165 166 169 170 170 167 158 154 157 167 167 168 171 180 205 254 240 198 163 153 149 146 152 167 321 27 134 141 142 138 138 144 151 138 117 116 133 159 169 168 166 166 167 167 166 164 164 164 164 165 164 163 161 159 157 155 153 150 147 144 142 140 140 140 137 131 122 110 96 84 75 69 65
178 183 183 184 183 180 174 176 177 173 162 164 166 168 169 169 169 168 167 162 164 169 176 180 181 180 172 176 188 196 195 170 154 148 148 156 171 282 351 122 139 145 147 155 165 169 160 158 164 173 183 177 174 172 171 172 172 171 170 169 169 170 172 172 170 168 165 160 157 153 151 148 145 142 140 139 138 136 131 122 112 102 92 85 78 74
187 189 188 188 182 175 170 176 177 174 168 168 165 164 166 170 172 171 171 171 174 177 179 184 189 190 182 173 167 167 178 169 156 150 153 161 170 199 349 122 137 143 151 165 172 176 169 179 192 193 189 182 177 175 174 175 175 174 173 173 173 174 176 177 176 174 170 164 159 155 152 149 147 144 142 141 139 136 132 124 116 108 101 94 89 85
190 193 193 188 177 169 174 182 182 177 172 167 163 163 169 172 174 176 177 178 181 183 182 186 191 192 182 153 144 150 167 167 160 154 156 160 169 183 201 151 149 151 162 178 186 188 168 184 198 197 192 185 181 177 177 178 177 176 175 175 175 177 179 180 180 177 173 168 163 158 154 152 149 147 145 143 141 139 135 128 122 115 108 103 98 94
192 197 196 184 174 172 180 182 180 175 169 162 161 165 170 171 174 178 179 178 181 185 187 193 193 186 157 140 146 156 167 168 166 161 153 155 168 187 187 162 157 158 168 184 193 190 155 168 207 212 199 187 182 180 180 181 180 179 177 177 177 179 181 183 182 179 176 172 167 162 158 155 153 151 148 146 144 142 138 133 128 122 116 111 107 103
193 195 191 183 180 179 177 172 172 171 166 162 165 170 173 172 175 178 177 176 180 185 190 193 189 165 120 135 150 160 169 173 172 163 146 156 175 194 192 164 156 158 168 182 190 190 137 164 205 210 201 189 185 183 184 184 183 181 179 179 180 181 183 185 183 181 177 174 170 166 162 159 157 154 152 149 147 144 141 137 133 128 123 119 115 111
190 186 180 183 183 176 163 161 164 168 167 169 172 175 173 173 175 177 176 177 178 174 157 130 104 81 76 114 141 158 172 178 173 159 148 165 177 186 182 161 156 161 170 179 180 168 144 169 209 224 214 195 191 189 188 187 186 184 182 181 182 183 185 185 183 180 177 174 171 169 166 163 160 157 154 152 149 146 144 140 137 133 129 125 122 119
182 175 172 178 175 163 150 154 160 166 170 174 177 175 168 167 166 164 163 159 148 130 110 96 84 74 73 108 135 157 176 173 164 156 158 168 168 165 166 164 167 170 172 170 157 143 142 166 217 283 290 209 199 194 191 191 188 186 183 183 184 185 186 185 183 179 175 173 171 169 167 164 161 159 156 153 150 148 145 142 139 136 133 129 126 123
163 162 165 168 164 158 153 156 161 165 168 170 169 161 146 133 121 109 102 105 107 110 114 113 111 108 108 134 150 165 180 163 155 160 164 156 145 144 163 169 170 168 163 154 132 125 135 163 226 306 314 237 210 199 195 193 190 187 184 184 185 186 186 184 181 177 174 172 170 169 167 164 162 159 157 154 151 149 146 143 140 137 134 129 126 124
143 149 155 158 158 157 156 159 163 166 167 165 161 150 135 122 112 105 101 109 119 127 131 136 142 144 137 147 162 173 179 167 149 156 156 138 135 143 165 168 161 151 139 124 115 124 143 169 220 285 298 260 223 207 200 196 192 188 185 185 185 186 186 183 180 176 173 171 169 168 167 165 163 161 159 157 154 151 148 146 143 139 134 128 124 123
138 143 149 153 155 157 158 161 164 166 167 165 160 152 141 132 128 129 137 145 149 150 154 162 161 153 143 160 172 174 172 173 173 150 136 130 135 147 163 160 150 138 127 119 119 136 151 169 202 243 261 272 264 233 207 200 194 188 185 185 186 186 185 182 179 175 173 171 169 168 167 166 165 163 162 160 158 156 153 150 146 140 131 122 117 115
139 143 149 152 156 158 160 163 166 168 168 166 161 156 150 145 145 152 161 161 160 162 170 172 167 159 162 173 173 168 167 179 185 179 144 132 137 148 157 151 143 135 128 116 94 73 92 156 215 240 253 263 279 262 224 205 195 188 185 185 186 186 184 181 178 175 173 171 170 169 168 167 166 166 165 164 163 161 158 155 148 139 124 112 98 84
137 141 146 150 154 156 159 162 166 168 169 167 164 162 159 158 160 163 164 161 163 169 179 179 172 162 159 156 147 146 178 191 190 178 152 138 137 142 145 143 141 136 129 113 79 30 360 320 273 250 253 248 254 260 253 216 200 190 186 186 186 186 185 182 179 177 175 173 172 170 169 169 168 168 168 167 166 165 163 157 148 135 113 103 93 81
132 135 142 146 149 151 154 158 163 167 169 168 167 167 167 166 165 162 157 160 166 173 181 179 171 159 147 138 136 156 204 201 189 172 159 150 144 141 141 148 151 149 139 126 112 72 308 292 277 257 244 231 229 240 273 245 219 199 187 186 187 187 185 183 180 178 177 175 173 172 171 170 170 169 169 169 169 168 165 159 146 127 103 98 93 85
137 138 140 141 142 143 146 151 158 164 168 169 169 168 168 166 160 156 155 163 170 175 178 174 166 159 155 152 161 181 203 191 180 172 169 160 148 143 150 154 159 160 148 139 138 148 206 261 272 274 268 230 222 227 245 262 252 203 179 181 186 189 187 184 181 179 177 175 173 172 171 170 170 171 171 171 171 171 169 161 147 128 112 109 105 103
143 141 138 134 133 134 138 144 149 154 159 162 162 160 156 156 155 157 161 169 173 175 174 167 163 164 170 174 180 184 183 169 168 170 171 155 140 139 154 154 157 158 141 128 136 144 156 195 226 245 278 237 231 228 226 210 181 159 145 153 176 190 188 181 178 176 175 173 172 171 171 170 171 171 172 172 173 173 172 167 155 137 123 123 126 132
142 137 132 127 124 122 123 125 125 125 125 126 127 130 135 142 151 158 165 171 174 172 168 162 161 166 176 182 182 173 158 158 165 167 165 148 135 139 154 154 155 153 127 86 102 123 135 157 167 173 187 217 227 225 223 206 179 155 144 147 161 184 184 170 163 160 160 162 166 168 169 170 171 173 173 174 176 176 176 173 165 153 138 134 137 141
142 138 132 127 120 114 110 108 107 108 107 105 106 108 110 119 132 144 153 159 164 165 164 162 163 166 173 176 171 160 161 174 168 165 162 149 139 143 152 157 158 156 145 122 99 98 106 132 140 144 159 194 216 231 225 214 190 154 144 146 148 155 165 142 127 117 114 113 122 140 152 165 172 176 176 178 179 180 180 178 173 166 159 150 142 138
144 141 138 134 128 123 116 112 110 109 108 103 101 101 103 105 108 114 119 116 115 122 136 151 160 165 171 171 169 170 183 183 172 167 161 153 145 142 151 163 165 162 160 153 138 121 112 132 143 146 146 164 191 225 239 238 241 58 120 138 139 140 144 126 119 113 104 90 76 58 46 58 134 172 181 185 186 186 186 185 182 178 174 166 157 148
148 148 148 144 140 137 134 131 126 121 114 104 98 96 99 98 97 96 96 95 91 88 84 89 110 141 161 166 168 169 172 170 169 168 166 160 151 145 151 166 169 167 164 161 151 138 130 138 145 148 147 154 174 205 230 224 98 72 93 121 125 128 137 131 126 124 119 119 116 101 59 56 54 72 202 200 197 195 194 194 192 190 186 181 176 169
154 156 157 153 149 146 144 141 136 131 126 116 106 98 97 95 93 91 88 86 88 88 85 76 67 62 65 108 140 152 155 159 164 168 168 162 157 152 153 163 169 170 169 165 158 147 134 135 143 151 156 161 172 185 199 180 159 143 161 149 135 128 138 127 126 127 127 141 151 159 157 143 135 142 230 213 208 205 203 203 203 202 198 195 191 186
160 161 162 160 156 150 146 145 143 140 134 128 120 110 101 96 92 89 85 82 84 87 89 82 72 64 59 68 81 103 125 146 157 162 162 160 159 155 149 153 166 174 175 168 161 153 145 145 151 162 175 185 188 183 175 170 172 177 182 164 128 106 134 149 145 140 138 148 157 161 157 147 141 141 153 198 206 213 222 238 241 231 212 208 203 199
166 166 166 165 162 157 153 150 146 140 131 126 120 114 106 98 92 86 81 79 79 81 85 86 81 72 63 64 69 77 91 117 135 145 148 152 154 152 147 151 162 170 170 161 157 156 155 157 163 169 173 179 186 186 174 171 172 173 169 146 103 358 270 190 169 160 152 151 155 157 152 135 132 137 147 130 123 137 190 274 311 333 91 267 215 210
169 168 168 168 165 159 152 146 139 131 126 123 119 115 110 103 95 86 80 78 79 80 83 84 82 75 66 62 61 63 67 78 92 104 121 135 144 148 148 152 157 160 157 149 148 154 157 160 164 167 165 163 164 166 166 173 173 169 160 156 179 222 231 203 187 177 160 155 156 159 159 146 143 152 165 161 163 169 180 188 187 116 87 89 98 172
169 168 168 163 152 138 126 124 124 126 127 126 124 121 119 115 109 101 92 86 84 85 90 88 84 77 67 60 56 54 54 55 56 61 78 105 128 138 144 149 152 153 152 148 147 150 154 153 153 154 152 148 146 151 161 173 174 172 170 173 185 201 206 190 183 177 167 160 160 161 162 158 160 167 176 178 180 180 175 166 161 148 112 112 127 141
168 167 163 151 139 129 120 117 119 122 126 126 129 133 137 134 131 127 122 114 110 108 112 109 102 92 78 61 48 43 42 44 48 55 68 92 120 134 141 146 148 150 151 150 150 151 152 151 152 155 157 148 142 142 159 172 175 177 179 173 158 136 116 189 193 182 171 171 167 164 165 162 165 173 177 181 190 197 179 165 162 159 153 147 147 152
165 158 147 138 133 129 126 124 125 128 131 133 139 146 148 144 141 138 134 132 134 137 133 123 118 113 106 87 57 31 18 18 27 44 59 80 108 129 141 145 148 151 153 152 153 153 147 147 153 159 164 154 147 145 152 164 173 180 181 167 151 141 160 211 210 192 178 175 170 165 164 162 161 161 162 160 154 141 68 199 193 186 176 167 166 171
147 136 129 128 127 126 126 132 138 144 146 147 150 152 152 149 144 140 134 135 138 140 136 123 112 107 105 104 93 59 12 1 8 22 41 60 82 112 132 143 148 152 156 156 156 154 143 145 158 167 163 150 145 145 152 162 171 179 183 173 169 170 183 188 179 172 174 177 171 163 156 147 137 126 117 111 94 73 79 170 226 226 196 166 165 173
131 129 130 133 134 137 142 147 150 151 151 152 153 153 156 155 150 145 138 139 140 142 142 134 123 113 106 115 117 104 55 14 10 14 23 38 54 76 106 131 145 151 154 156 156 154 151 155 164 171 158 141 142 148 157 162 169 175 180 180 179 178 175 161 159 163 172 175 174 165 149 134 125 119 119 135 177 256 216 184 196 206 210 179 173 178
134 137 141 144 147 152 156 155 152 149 149 151 152 154 158 156 150 145 144 143 145 149 155 146 137 134 140 144 142 133 116 78 36 19 16 20 29 44 69 99 122 135 142 144 146 148 152 154 153 150 142 134 139 153 163 164 166 170 176 177 175 167 126 137 161 169 172 172 169 162 144 129 127 134 156 176 206 248 268 216 202 200 201 193 190 191
145 147 150 152 154 155 155 152 150 150 153 156 158 159 158 152 146 144 145 147 148 150 153 140 135 138 148 152 152 150 147 144 133 95 44 34 39 50 64 75 85 95 106 113 115 121 135 142 145 146 147 147 154 168 179 170 167 167 170 170 167 164 162 180 184 180 172 167 163 155 140 132 139 154 169 173 198 262 282 254 227 212 202 195 193 195
153 154 155 155 155 154 153 153 154 156 159 159 160 159 161 160 158 155 151 153 153 151 151 141 135 136 145 153 158 159 157 154 151 144 127 106 87 82 82 83 84 84 84 86 87 90 101 119 134 142 148 150 156 167 178 177 173 170 166 165 164 165 173 188 189 180 167 162 157 153 148 150 157 165 166 164 183 248 275 268 256 240 221 205 197 198
155 156 157 157 157 157 158 160 161 161 161 160 159 160 166 169 168 164 158 159 159 158 158 153 148 145 147 156 160 160 156 152 151 150 150 149 138 123 109 102 95 87 75 66 60 57 63 70 99 132 146 146 149 156 167 174 174 168 160 161 162 164 168 174 175 170 162 156 154 155 159 160 158 153 151 161 180 218 261 273 269 260 243 220 207 204
157 158 158 159 160 161 162 163 164 165 164 161 161 161 165 170 170 166 159 160 162 164 164 160 156 153 154 159 161 161 159 155 154 155 160 159 151 140 132 124 115 104 87 64 46 36 32 27 13 353 176 162 153 150 156 163 163 159 155 162 163 161 157 156 163 166 163 157 154 155 157 152 139 131 138 156 174 201 257 276 274 265 255 232 216 212
159 159 160 161 162 163 163 164 166 166 165 163 162 161 162 165 166 164 159 163 165 167 165 161 158 157 159 162 164 166 167 163 162 164 167 165 156 148 144 140 134 128 120 111 102 94 91 87 344 302 277 215 180 162 155 158 157 156 161 173 170 159 149 146 155 162 163 159 156 154 154 150 143 138 143 152 161 179 236 265 267 265 261 237 218 216